Flag for Trinidad and Tobago Weather past 2 weeks in Scarborough, Trinidad and Tobago

Now
84 °F

Passing clouds.


Feels Like: 92 °F
Forecast: 78 / 86 °F
Wind: 10 mph from East

Location: Crown Pt./ Scarborou

Current Time: Aug 28, 2014 at 9:55:17 AM

Latest Report: Aug 28, 2014 at 8:00 AM


Visibility: N/A

Pressure: 29.98 "Hg

Humidity: 74%

Dew point: 75 °F

Location of ScarboroughLocation

Historic Weather in Scarborough — Graph

°F

Scarborough temperature yesterday

Maximum temperature yesterday: 86 °F (at 12:00 PM)
Minimum temperature yesterday: 77 °F (at 12:00 AM)
Average temperature yesterday: 81 °F

Past Weeks' High & Low Weather Summary

 TemperatureHumidityPressure
High90 °F (Aug 13, 11:00 AM)94% (Aug 19, 8:00 PM)30.04 "Hg (Aug 19, 8:00 PM)
Low77 °F (Aug 15, 3:00 AM)40% (Aug 27, 1:00 PM)29.83 "Hg (Aug 21, 4:00 PM)
Average82 °F78%29.92 "Hg
* Reported Aug 13 8:00 AM — Aug 28 8:00 AM, Scarborough, Weather by CustomWeather, © 2014

Note: Actual official high and low records may vary slightly from our data, if they occured in-between our weather recording intervals... More about our weather records

Advertising

Scarborough weather history for previous 24 hours

 ConditionsComfort  
Time TempWeatherWind HumidityBarometerVisibility
8:00 AM
Aug 28
84 °FPassing clouds.10 mph74%29.98 "HgN/A
7:00 AM82 °FBroken clouds.17 mph79%29.95 "Hg6 mi
6:00 AM81 °FScattered showers. Partly sunny.14 mph84%29.92 "Hg2 mi
2:00 AM81 °FPassing clouds.14 mph84%29.95 "HgN/A
10:00 PM
Aug 27
82 °FPassing clouds.12 mph74%29.98 "HgN/A
9:00 PM82 °FPassing clouds.14 mph74%29.95 "HgN/A
8:00 PM82 °FPassing clouds.10 mph79%29.95 "HgN/A
7:00 PM82 °FPassing clouds.12 mph79%29.92 "HgN/A
6:00 PM82 °FPassing clouds.12 mph79%29.92 "HgN/A
5:00 PM82 °FPassing clouds.8 mph79%29.89 "HgN/A
4:00 PM82 °FScattered clouds.12 mph74%29.89 "HgN/A
3:00 PM82 °FScattered clouds.7 mph70%29.89 "HgN/A
2:00 PM79 °FScattered clouds.6 mph89%29.92 "HgN/A
1:20 PM82 °FSprinkles. Cloudy.18 mph84%29.95 "Hg3 mi
1:00 PM86 °FScattered clouds.8 mph40%29.95 "HgN/A
12:00 PM86 °FPassing clouds.7 mph70%29.95 "HgN/A
11:00 AM82 °FPassing clouds.7 mph79%29.95 "HgN/A
10:00 AM82 °FPassing clouds.7 mph79%29.95 "HgN/A
9:00 AM82 °FPassing clouds.7 mph74%29.95 "HgN/A
Weather by CustomWeather, © 2014

See weather overviewHow to use our weather pages